CFG117 EDXW-EDDC

Flight info

Callsign CFG117
Flight time 0h 59m
Altitude 23000
Route OLDIP1B OLDIP DCT PIZID/N0454F370 DCT EKERN M852 AMLUH L619 PITEN Z998 OSKAN OSKAN4A
Aircraft A20N/M-SDE2E3FGHIRWXY/LB1

Departure

Time 2026-04-20 15:57
Airport Westerland Sylt Airport (EDXW)

Arrival

Time 2026-04-20 16:56
Airport Dresden Airport (EDDC)
Time Latitude Longitude Altitude Speed Heading
2026-04-20 15:44 54.91312 8.33104 40 ft 0 kts 271°
2026-04-20 15:54 54.91311 8.33167 40 ft 7 kts 265°
2026-04-20 15:54 54.91315 8.33196 39 ft 3 kts 201°
2026-04-20 15:54 54.91173 8.33177 39 ft 36 kts 179°
2026-04-20 15:55 54.90889 8.33147 38 ft 43 kts 152°
2026-04-20 15:55 54.90585 8.33248 39 ft 51 kts 174°
2026-04-20 15:55 54.90298 8.33558 37 ft 50 kts 116°
2026-04-20 15:55 54.90239 8.34186 40 ft 56 kts 86°
2026-04-20 15:56 54.90452 8.34705 40 ft 53 kts 43°
2026-04-20 15:56 54.90712 8.34873 40 ft 32 kts 312°
2026-04-20 15:56 54.90980 8.34452 42 ft 94 kts 324°
2026-04-20 15:56 54.91784 8.33527 47 ft 182 kts 328°
2026-04-20 15:57 54.92940 8.32385 1026 ft 189 kts 333°
2026-04-20 15:57 54.94075 8.31176 2359 ft 196 kts 320°
2026-04-20 15:57 54.95158 8.29575 3426 ft 215 kts 320°
2026-04-20 15:57 54.96369 8.27820 4577 ft 233 kts 321°
2026-04-20 15:58 54.97649 8.25984 5738 ft 249 kts 314°
2026-04-20 15:58 54.98490 8.23172 6277 ft 279 kts 280°
2026-04-20 15:58 54.98263 8.19893 6054 ft 269 kts 242°
2026-04-20 15:58 54.97160 8.17386 6132 ft 264 kts 227°
2026-04-20 15:59 54.95850 8.15031 6473 ft 272 kts 224°
2026-04-20 15:59 54.94257 8.13437 7403 ft 270 kts 192°
2026-04-20 15:59 54.92366 8.13713 7843 ft 280 kts 157°
2026-04-20 15:59 54.90653 8.15390 8114 ft 283 kts 146°
2026-04-20 16:00 54.89056 8.17383 8227 ft 283 kts 142°
2026-04-20 16:00 54.87517 8.19505 8283 ft 282 kts 141°
2026-04-20 16:00 54.85899 8.21844 8302 ft 322 kts 140°
2026-04-20 16:00 54.84211 8.24181 8341 ft 295 kts 142°
2026-04-20 16:01 54.82648 8.26216 8333 ft 277 kts 144°
2026-04-20 16:01 54.81070 8.28151 8355 ft 288 kts 148°
2026-04-20 16:01 54.79454 8.29948 10207 ft 258 kts 149°
2026-04-20 16:01 54.78327 8.31139 12074 ft 214 kts 149°
2026-04-20 16:02 54.77297 8.32016 13638 ft 173 kts 146°
2026-04-20 16:02 54.76293 8.32979 14598 ft 169 kts 142°
2026-04-20 16:02 54.75173 8.34291 14432 ft 222 kts 139°
2026-04-20 16:02 54.73856 8.36173 14423 ft 267 kts 134°
2026-04-20 16:03 54.72444 8.38599 14622 ft 302 kts 130°
2026-04-20 16:03 54.71017 8.41508 14949 ft 331 kts 126°
2026-04-20 16:03 54.69615 8.44858 15381 ft 355 kts 122°
2026-04-20 16:03 54.68273 8.48585 15898 ft 375 kts 119°
2026-04-20 16:04 54.67006 8.52640 16486 ft 391 kts 116°
2026-04-20 16:04 54.65830 8.56956 17160 ft 404 kts 113°
2026-04-20 16:04 54.64767 8.61445 17884 ft 414 kts 110°
2026-04-20 16:04 54.63797 8.66169 18665 ft 421 kts 108°
2026-04-20 16:05 54.62930 8.71056 19214 ft 432 kts 106°
2026-04-20 16:05 54.62159 8.76188 19527 ft 434 kts 103°
2026-04-20 16:05 54.61618 8.80900 21379 ft 376 kts 103°
2026-04-20 16:05 54.61077 8.84921 24398 ft 317 kts 104°
2026-04-20 16:06 54.60544 8.88632 25102 ft 334 kts 105°
2026-04-20 16:06 54.59933 8.92732 24850 ft 369 kts 104°
2026-04-20 16:06 54.59657 8.94768 24827 ft 382 kts 103°
2026-04-20 16:06 54.59086 8.99392 24816 ft 407 kts 101°
2026-04-20 16:07 54.58534 9.04321 24827 ft 430 kts 100°
2026-04-20 16:07 54.57981 9.09516 24831 ft 451 kts 100°
2026-04-20 16:07 54.57409 9.14963 24838 ft 471 kts 100°
2026-04-20 16:07 54.56821 9.20646 24841 ft 490 kts 100°
2026-04-20 16:08 54.56223 9.26510 24846 ft 503 kts 100°
2026-04-20 16:08 54.55632 9.32409 24842 ft 506 kts 100°
2026-04-20 16:08 54.55053 9.38342 24838 ft 497 kts 99°
2026-04-20 16:08 54.54506 9.44111 24674 ft 478 kts 99°
2026-04-20 16:09 54.53999 9.49654 24257 ft 460 kts 98°
2026-04-20 16:09 54.53509 9.55142 24072 ft 458 kts 98°
2026-04-20 16:09 54.53033 9.60492 23998 ft 459 kts 99°
2026-04-20 16:09 54.52521 9.65902 23967 ft 459 kts 99°
2026-04-20 16:10 54.51985 9.71329 23951 ft 459 kts 99°
2026-04-20 16:10 54.51446 9.76736 23953 ft 459 kts 99°
2026-04-20 16:10 54.50800 9.82115 23946 ft 460 kts 109°
2026-04-20 16:10 54.49207 9.86936 23970 ft 460 kts 131°
2026-04-20 16:11 54.46708 9.90336 23978 ft 459 kts 153°
2026-04-20 16:11 54.43727 9.92006 23978 ft 458 kts 168°
2026-04-20 16:11 54.40584 9.92962 23972 ft 458 kts 171°
2026-04-20 16:11 54.37430 9.93765 23974 ft 458 kts 172°
2026-04-20 16:12 54.34272 9.94559 23972 ft 458 kts 172°
2026-04-20 16:12 54.31127 9.95412 23973 ft 458 kts 171°
2026-04-20 16:12 54.27989 9.96351 23971 ft 458 kts 170°
2026-04-20 16:12 54.24849 9.97383 23969 ft 458 kts 169°
2026-04-20 16:13 54.21729 9.98493 23969 ft 459 kts 168°
2026-04-20 16:13 54.18612 9.99678 23969 ft 459 kts 167°
2026-04-20 16:13 54.15507 10.00930 23957 ft 458 kts 167°
2026-04-20 16:13 54.12426 10.02192 23952 ft 458 kts 167°
2026-04-20 16:14 54.09324 10.03453 23946 ft 458 kts 167°
2026-04-20 16:14 54.06219 10.04715 23938 ft 459 kts 167°
2026-04-20 16:14 54.03114 10.05983 23937 ft 458 kts 167°
2026-04-20 16:14 54.00007 10.07258 23926 ft 458 kts 166°
2026-04-20 16:15 53.96908 10.08536 23930 ft 458 kts 166°
2026-04-20 16:15 53.93811 10.09817 23928 ft 458 kts 166°
2026-04-20 16:15 53.90707 10.11105 23921 ft 459 kts 166°
2026-04-20 16:15 53.87604 10.12396 23919 ft 458 kts 166°
2026-04-20 16:16 53.84549 10.13670 23922 ft 458 kts 166°
2026-04-20 16:16 53.81450 10.14967 23918 ft 458 kts 166°
2026-04-20 16:16 53.78362 10.16262 23916 ft 459 kts 166°
2026-04-20 16:16 53.75258 10.17569 23921 ft 465 kts 166°
2026-04-20 16:17 53.72068 10.18919 23922 ft 475 kts 166°
2026-04-20 16:17 53.68877 10.20291 23921 ft 473 kts 166°
2026-04-20 16:17 53.65639 10.21711 23924 ft 490 kts 166°
2026-04-20 16:17 53.62277 10.23199 23923 ft 506 kts 166°
2026-04-20 16:18 53.58991 10.24672 23920 ft 470 kts 165°
2026-04-20 16:18 53.55847 10.26121 23928 ft 467 kts 165°
2026-04-20 16:18 53.52701 10.27592 23921 ft 471 kts 165°
2026-04-20 16:18 53.49540 10.29070 23918 ft 471 kts 165°
2026-04-20 16:19 53.46388 10.30568 23917 ft 470 kts 162°
2026-04-20 16:19 53.43476 10.33047 23908 ft 471 kts 143°
2026-04-20 16:19 53.41236 10.37039 23907 ft 472 kts 125°
2026-04-20 16:19 53.39526 10.41722 23899 ft 473 kts 120°
2026-04-20 16:20 53.37952 10.46576 23896 ft 472 kts 118°
2026-04-20 16:20 53.36443 10.51445 23890 ft 472 kts 117°
2026-04-20 16:20 53.34969 10.56351 23890 ft 472 kts 115°
2026-04-20 16:20 53.33519 10.61303 23892 ft 473 kts 115°
2026-04-20 16:21 53.32049 10.66215 23889 ft 469 kts 116°
2026-04-20 16:21 53.30597 10.70937 23892 ft 457 kts 117°
2026-04-20 16:21 53.29088 10.75740 23890 ft 473 kts 118°
2026-04-20 16:21 53.27532 10.80597 23885 ft 473 kts 118°
2026-04-20 16:22 53.25970 10.85407 23889 ft 471 kts 119°
2026-04-20 16:22 53.24396 10.90217 23888 ft 472 kts 119°
2026-04-20 16:22 53.22823 10.95033 23883 ft 473 kts 119°
2026-04-20 16:22 53.21253 10.99859 23886 ft 472 kts 118°
2026-04-20 16:23 53.19693 11.04670 23889 ft 472 kts 118°
2026-04-20 16:23 53.18662 11.07857 23892 ft 472 kts 118°
2026-04-20 16:23 53.17102 11.12684 23883 ft 473 kts 118°
2026-04-20 16:23 53.15036 11.19087 23889 ft 473 kts 118°
2026-04-20 16:24 53.13986 11.22344 23896 ft 472 kts 118°
2026-04-20 16:24 53.12416 11.27202 24052 ft 482 kts 118°
2026-04-20 16:24 53.10886 11.31959 25884 ft 450 kts 118°
2026-04-20 16:24 53.09462 11.36403 27919 ft 422 kts 118°
2026-04-20 16:25 53.08092 11.40675 29143 ft 417 kts 118°
2026-04-20 16:25 53.06758 11.44815 30666 ft 395 kts 118°
2026-04-20 16:25 53.05484 11.48710 32070 ft 373 kts 118°
2026-04-20 16:25 53.04294 11.52393 33481 ft 350 kts 115°
2026-04-20 16:26 53.03457 11.56007 34718 ft 324 kts 108°
2026-04-20 16:26 53.02763 11.59535 35269 ft 323 kts 108°
2026-04-20 16:26 53.02049 11.63235 34755 ft 355 kts 108°
2026-04-20 16:26 53.01269 11.67321 34382 ft 384 kts 107°
2026-04-20 16:27 53.00443 11.71682 34100 ft 408 kts 107°
2026-04-20 16:27 52.99581 11.76237 34384 ft 413 kts 107°
2026-04-20 16:27 52.98634 11.80720 35095 ft 407 kts 112°
2026-04-20 16:27 52.97401 11.84841 35812 ft 400 kts 124°
2026-04-20 16:28 52.95687 11.88466 36593 ft 390 kts 131°
2026-04-20 16:28 52.93949 11.91863 37397 ft 380 kts 127°
2026-04-20 16:28 52.92461 11.95459 37776 ft 383 kts 122°
2026-04-20 16:28 52.91015 11.99196 38062 ft 386 kts 123°
2026-04-20 16:29 52.89540 12.02927 38366 ft 390 kts 125°
2026-04-20 16:29 52.87887 12.06537 38551 ft 396 kts 130°
2026-04-20 16:29 52.86076 12.10062 38404 ft 411 kts 129°
2026-04-20 16:29 52.84224 12.13839 37896 ft 434 kts 128°
2026-04-20 16:30 52.82320 12.17872 37483 ft 454 kts 127°
2026-04-20 16:30 52.80364 12.22112 37141 ft 473 kts 127°
2026-04-20 16:30 52.78378 12.26445 37085 ft 485 kts 127°
2026-04-20 16:30 52.76282 12.30978 37086 ft 495 kts 128°
2026-04-20 16:31 52.71963 12.39904 37086 ft 504 kts 137°
2026-04-20 16:31 52.66344 12.46829 36884 ft 505 kts 147°
2026-04-20 16:32 52.63467 12.49908 36659 ft 499 kts 148°
2026-04-20 16:32 52.60721 12.52715 35708 ft 488 kts 148°
2026-04-20 16:32 52.57768 12.55679 35292 ft 495 kts 149°
2026-04-20 16:32 52.54901 12.58529 34816 ft 475 kts 149°
2026-04-20 16:33 52.52106 12.61293 33538 ft 460 kts 149°
2026-04-20 16:33 52.49412 12.63942 32231 ft 441 kts 149°
2026-04-20 16:33 52.46823 12.66478 31829 ft 428 kts 149°
2026-04-20 16:33 52.44277 12.68963 31479 ft 423 kts 149°
2026-04-20 16:34 52.41768 12.71405 31309 ft 415 kts 149°
2026-04-20 16:34 52.39306 12.73796 31243 ft 406 kts 149°
2026-04-20 16:34 52.34549 12.78402 31198 ft 389 kts 149°
2026-04-20 16:35 52.32259 12.80613 31190 ft 377 kts 149°
2026-04-20 16:35 52.30016 12.82774 31187 ft 372 kts 150°
2026-04-20 16:35 52.25627 12.87014 30829 ft 372 kts 149°
2026-04-20 16:36 52.23330 12.89250 29422 ft 397 kts 149°
2026-04-20 16:36 52.20907 12.91610 27604 ft 413 kts 149°
2026-04-20 16:36 52.18445 12.94007 26065 ft 407 kts 149°
2026-04-20 16:36 52.16057 12.96330 24291 ft 394 kts 149°
2026-04-20 16:37 52.13722 12.98597 22872 ft 385 kts 149°
2026-04-20 16:37 52.11452 13.00796 22416 ft 377 kts 149°
2026-04-20 16:37 52.09193 13.02980 22029 ft 380 kts 149°
2026-04-20 16:37 52.06911 13.05181 21833 ft 378 kts 149°
2026-04-20 16:38 52.04653 13.07357 21748 ft 376 kts 149°
2026-04-20 16:38 52.02447 13.09477 21676 ft 373 kts 149°
2026-04-20 16:38 52.00221 13.11616 21677 ft 370 kts 149°
2026-04-20 16:38 51.98013 13.13735 21684 ft 368 kts 149°
2026-04-20 16:39 51.95815 13.15839 21687 ft 366 kts 149°
2026-04-20 16:39 51.93628 13.17929 21686 ft 364 kts 149°
2026-04-20 16:39 51.91488 13.19874 21327 ft 347 kts 148°
2026-04-20 16:39 51.89395 13.21859 21191 ft 350 kts 147°
2026-04-20 16:40 51.87301 13.23890 21120 ft 351 kts 147°
2026-04-20 16:40 51.85214 13.25923 21090 ft 350 kts 148°
2026-04-20 16:40 51.83125 13.27950 21054 ft 350 kts 148°
2026-04-20 16:40 51.81004 13.29994 20346 ft 360 kts 148°
2026-04-20 16:41 51.78846 13.32062 19519 ft 357 kts 148°
2026-04-20 16:41 51.76736 13.34076 18173 ft 347 kts 148°
2026-04-20 16:41 51.74674 13.36036 16232 ft 341 kts 149°
2026-04-20 16:41 51.72635 13.37969 14401 ft 341 kts 149°
2026-04-20 16:42 51.70584 13.39905 13479 ft 336 kts 149°
2026-04-20 16:42 51.68598 13.41779 13077 ft 336 kts 149°
2026-04-20 16:42 51.66575 13.43687 12782 ft 335 kts 149°
2026-04-20 16:42 51.64561 13.45580 12644 ft 334 kts 149°
2026-04-20 16:43 51.62547 13.47468 12584 ft 336 kts 149°
2026-04-20 16:43 51.60527 13.49359 12560 ft 336 kts 149°
2026-04-20 16:43 51.58507 13.51248 12553 ft 336 kts 149°
2026-04-20 16:43 51.56480 13.53141 12543 ft 337 kts 149°
2026-04-20 16:44 51.54454 13.55028 12537 ft 337 kts 150°
2026-04-20 16:44 51.52423 13.56921 12529 ft 337 kts 150°
2026-04-20 16:44 51.50394 13.58807 12528 ft 337 kts 150°
2026-04-20 16:44 51.48515 13.61015 12538 ft 337 kts 130°
2026-04-20 16:45 51.47243 13.64204 12265 ft 337 kts 116°
2026-04-20 16:45 51.46266 13.67617 11798 ft 342 kts 112°
2026-04-20 16:45 51.45412 13.71140 11156 ft 337 kts 109°
2026-04-20 16:45 51.44666 13.74615 10541 ft 325 kts 108°
2026-04-20 16:46 51.44040 13.77860 9928 ft 291 kts 107°
2026-04-20 16:46 51.43458 13.80931 9259 ft 287 kts 107°
2026-04-20 16:46 51.42900 13.83975 8604 ft 284 kts 106°
2026-04-20 16:46 51.42391 13.86861 9205 ft 275 kts 105°
2026-04-20 16:47 51.41859 13.89945 8740 ft 286 kts 105°
2026-04-20 16:47 51.41336 13.92990 7252 ft 287 kts 105°
2026-04-20 16:47 51.40827 13.95958 6556 ft 264 kts 105°
2026-04-20 16:47 51.40376 13.98703 6560 ft 243 kts 103°
2026-04-20 16:48 51.40100 14.01254 6792 ft 219 kts 99°
2026-04-20 16:48 51.39711 14.03533 6870 ft 210 kts 110°
2026-04-20 16:48 51.39043 14.05643 6466 ft 213 kts 124°
2026-04-20 16:48 51.38030 14.07261 6062 ft 201 kts 148°
2026-04-20 16:49 51.36749 14.07942 5666 ft 192 kts 178°
2026-04-20 16:49 51.35490 14.07500 5391 ft 181 kts 205°
2026-04-20 16:49 51.34471 14.06400 5192 ft 173 kts 221°
2026-04-20 16:49 51.33578 14.05137 4982 ft 169 kts 223°
2026-04-20 16:50 51.32712 14.03885 4743 ft 167 kts 222°
2026-04-20 16:50 51.31848 14.02653 4505 ft 165 kts 222°
2026-04-20 16:50 51.30989 14.01447 4288 ft 163 kts 223°
2026-04-20 16:50 51.30184 14.00241 4078 ft 160 kts 224°
2026-04-20 16:51 51.29377 13.99013 3860 ft 157 kts 224°
2026-04-20 16:51 51.28587 13.97819 3670 ft 152 kts 224°
2026-04-20 16:51 51.27830 13.96683 3504 ft 150 kts 224°
2026-04-20 16:51 51.27072 13.95543 3383 ft 151 kts 224°
2026-04-20 16:52 51.26323 13.94410 3286 ft 146 kts 224°
2026-04-20 16:52 51.25603 13.93306 3160 ft 141 kts 224°
2026-04-20 16:52 51.24877 13.92215 3080 ft 146 kts 224°
2026-04-20 16:52 51.24132 13.91081 3093 ft 150 kts 224°
2026-04-20 16:53 51.23352 13.89916 3027 ft 156 kts 223°
2026-04-20 16:53 51.22522 13.88776 3013 ft 159 kts 219°
2026-04-20 16:53 51.21647 13.87690 3019 ft 160 kts 218°
2026-04-20 16:53 51.20756 13.86596 2916 ft 163 kts 218°
2026-04-20 16:54 51.19871 13.85468 2632 ft 164 kts 221°
2026-04-20 16:54 51.18990 13.84289 2342 ft 165 kts 218°
2026-04-20 16:54 51.18124 13.83136 2093 ft 164 kts 221°
2026-04-20 16:54 51.17306 13.82033 1854 ft 143 kts 220°
2026-04-20 16:55 51.16556 13.81071 1456 ft 135 kts 219°
2026-04-20 16:55 51.15847 13.80143 1120 ft 128 kts 221°
2026-04-20 16:55 51.15151 13.79184 998 ft 133 kts 223°
2026-04-20 16:55 51.14467 13.78213 855 ft 130 kts 221°
2026-04-20 16:56 51.13842 13.77372 724 ft 100 kts 221°
2026-04-20 16:56 51.13420 13.76780 732 ft 51 kts 222°
2026-04-20 16:56 51.13183 13.76450 743 ft 40 kts 220°
2026-04-20 16:56 51.12984 13.76178 744 ft 39 kts 221°
2026-04-20 16:57 51.12774 13.75888 752 ft 29 kts 221°
2026-04-20 16:57 51.12663 13.75896 754 ft 0 kts 124°
2026-04-20 16:57 51.12660 13.75902 754 ft 1 kts 127°
2026-04-20 16:58 51.12659 13.75904 754 ft 1 kts 128°
2026-04-20 16:58 51.12638 13.75945 751 ft 9 kts 130°
2026-04-20 16:58 51.12613 13.75990 751 ft 0 kts 130°
2026-04-20 16:59 51.12613 13.75991 752 ft 0 kts 130°
2026-04-20 16:59 51.12611 13.75994 752 ft 0 kts 130°
2026-04-20 17:02 51.12609 13.75998 749 ft 1 kts 131°
2026-04-20 17:04 51.12609 13.75999 749 ft 1 kts 131°
2026-04-20 17:04 51.12587 13.76107 754 ft 19 kts 86°
2026-04-20 17:04 51.12681 13.76254 750 ft 21 kts 40°
2026-04-20 17:05 51.12725 13.76344 749 ft 1 kts 115°
2026-04-20 17:05 51.12711 13.76354 749 ft 3 kts 156°
2026-04-20 17:05 51.12663 13.76366 751 ft 10 kts 166°
2026-04-20 17:05 51.12637 13.76391 750 ft 0 kts 134°